Regional Weather Roundup
Issued by NWS

Home | Current Version | Previous Version | Graphics & Text | Print | Product List | Glossary On
Versions: 1 2 3 4 5 6 7 8 9 10 11 12 13 14 15 16 17 18 19 20 21 22 23 24 25 26 27 28 29 30 31 32 33 34 35 36 37 38 39 40 41 42 43 44 45 46 47 48 49 50
000
ASUS43 KTOP 091908
RWRKS

WEATHER ROUNDUP FOR KANSAS
NATIONAL WEATHER SERVICE GOODLAND KS
200 PM CDT WED JUL 09 2014

NOTE:  "FAIR" INDICATES FEW OR NO CLOUDS BELOW 12,000 FEET WITH NO
SIGNIFICANT WEATHER AND/OR OBSTRUCTIONS TO VISIBILITY.

KSZ001>006-013>018-027>032-041>047-092000-
NORTHWEST KANSAS

CITY           SKY/WX    TMP DP  RH WIND       PRES   REMARKS
GOODLAND       SUNNY     83  61  47 S17G23    30.08F
HAYS           MOSUNNY   82  57  42 S18       30.06F
HILL CITY      PTSUNNY   88  58  36 S14       30.06F
RUSSELL        PTSUNNY   85  57  38 S16       30.04F
$$

KSZ061>065-074>080-084>089-092000-
SOUTHWEST KANSAS

CITY           SKY/WX    TMP DP  RH WIND       PRES   REMARKS
DODGE CITY     SUNNY     83  60  45 S16       30.08F
ELKHART          N/A     86  60  41 SE14        N/A
GARDEN CITY    SUNNY     83  62  49 SW20G26   30.07F
GREAT BEND     PTSUNNY   86  61  42 S14       30.04F
LIBERAL        MOSUNNY   86  63  45 S17       30.09F
PRATT          MOSUNNY   84  55  37 S9        30.08F
$$

KSZ066>073-081>083-090>101-092000-
SOUTHEAST KANSAS

CITY           SKY/WX    TMP DP  RH WIND       PRES   REMARKS
CHANUTE        SUNNY     85  54  34 SW5       30.06F
COFFEYVILLE    SUNNY     87  60  40 VRB3      30.04F
HUTCHINSON     SUNNY     88  58  36 S10       30.06F
MEDICINE LODGE   N/A     88  58  36 SE9       30.04F
NEWTON         SUNNY     86  55  35 E6        30.10F
PARSONS        SUNNY     86  59  39 CALM      30.06F
WICHITA INTL   PTSUNNY   85  58  39 SE6       30.05F
WICHITA JABRA  SUNNY     86  63  45 E8        30.05F
WICHITA MCCONL MOSUNNY   86  57  37 VRB6      30.06F
WINFIELD       SUNNY     86  61  42 E6        30.06F
$$

KSZ007>012-019>026-033>040-048>060-102>105-092000-
NORTHEAST KANSAS

CITY           SKY/WX    TMP DP  RH WIND       PRES   REMARKS
CONCORDIA      SUNNY     85  58  39 S14       30.05F
EMPORIA        SUNNY     84  56  38 SW7       30.06F
LAWRENCE       SUNNY     85  59  41 NW7       30.06F
MANHATTAN      MOSUNNY   87  55  33 CALM      30.05F
MARYSVILLE     SUNNY     82  57  42 SW5       30.07F
OLATHE IND     MOSUNNY   84  61  45 VRB6      30.07F
OLATHE EXE     MOSUNNY   83  58  42 MISG      30.06F
SALINA         SUNNY     89  58  34 SE12      30.05F
TOPEKA BILLARD SUNNY     86  56  35 N6        30.06F
TOPEKA FORBES  MOSUNNY   86  57  37 VRB5      30.07F
$$



USA.gov is the U.S. government's official web portal to all federal, state and local government web resources and services.